STARLINK-3093, 49141

Orbit data source: Space-Track

STARLINK-3093, 49141 is a payload satellite owned by SpaceX/Seattle (US) in LEO that was launched on Tue, 14 Sep 2021 UTC via an FALCON 9 launch vehicle from the Air Force Western Test Range (AFWTR). Payload-class satellites include a variety of spacecraft equipped with specific instruments for various scientific and technological missions. These include communications satellites like Starlink; space stations such as the ISS; scientific satellites like the Hubble; Earth observation satellites from companies like Planet Labs, Umbra, and HawkEye 360; GPS; miniature CubeSats for education and research; and military/defense satellites.

Loading next visibility...
Identifier
49141, 2021-082M
Orbit
LEO
Country
Flag of USUS
Related business
Manufacturer
SpaceX/Seattle
Mission
Operational Commercial Communications
Bus & Motor
STARLINK, Unknown motor
Mass
297 kg wet, ~275 kg dry
Launch date (UTC)
2021-09-14 (5 years ago)
Launch vehicle
FALCON 9
Launch site
Air Force Western Test Range (AFWTR)
Object type
Payload
Rocket body
Debris
Shape & HBR
Box + 1 Pan, 10.1 m
Radar Cross Section
13.562 m², Large (>1 m²)

Expand to show TLE details & history
Last TLE update: 16 hours ago

TLE from 16 hours ago
0 STARLINK-3093
1 49141U 21082M   26125.45575948  .00000121  00000-0  17960-4 0  9996
2 49141  69.9989 151.3398 0003723 266.5080  93.5653 14.98331234255688
Epoch: 2026-05-05T10:56Z
TLE epoch observation values (Epoch: 2026-05-05T10:56:17.619Z)
Latitude
-0.00002°
Longitude
123.93603°
Altitude
574.638 km
Speed
7.574 km/s
True Right ascension
10h 05m 21s
True Declination
0° 00' 00"
Sunlit
Object was in daylight at epoch
Visualization orbit readout
Latitude
Unknown
Longitude
Unknown
Altitude
Unknown
Speed
Unknown
Apparent Right ascension
Unknown
Apparent Declination
Unknown
Sunlit
N/A
Visualization observer readout
Local Sidereal Time
10:39:28
Azimuth
Unknown
Elevation
Unknown
Doppler factor
Unknown
Orbital elements
Apogee altitude
572.587 km
Perigee altitude
567.414 km
Semi-major axis
6,948.137 km
Eccentricity
0.00037
Inclination
69.9989°
RAAN
151.3398°
Arg. of periapsis
266.508°
True anomaly
93.60788°
Mean anomaly
93.5653°
Eccentric anomaly
93.58659°
Mean motion
3.74749 °/min
Orbital period
96.06 mins
BSTAR
0.00001796
Loading maneuver chart data...
Computing Atmospheric mass density...

Documentation

Showing up to 5 results
|